Regional Weather Roundup
Issued by NWS Sioux Falls, SD

Home | Current Version | Previous Version | Graphics & Text | Print | Product List | Glossary Off
Versions: 1 2 3 4 5 6 7 8 9 10 11 12 13 14 15 16 17 18 19 20 21 22 23 24 25 26 27 28 29 30 31 32 33 34 35 36 37 38 39 40 41 42 43 44 45 46 47 48 49 50

980
ASUS43 KFSD 282102
RWRFSD

WEATHER ROUNDUP FOR SE SOUTH DAKOTA/SW MINNESOTA/NW IOWA
NATIONAL WEATHER SERVICE SIOUX FALLS SD
400 PM CDT THU APR 28 2016

NOTE: "FAIR" INDICATES FEW OR NO CLOUDS BELOW 12,000 FEET WITH NO
SIGNIFICANT WEATHER AND OR OBSTRUCTIONS TO VISIBILITY.


SDZ038>040-050-052>070-282200-
SOUTHEAST SOUTH DAKOTA

CITY           SKY/WX    TMP DP  RH WIND       PRES   REMARKS
BROOKINGS      CLOUDY    39  34  82 NE16      30.01S
CHAMBERLAIN    NOT AVBL
HURON          CLOUDY    43  37  79 NE13      30.04S
MADISON        CLOUDY    37  37 100 NE14      30.02R
MITCHELL       CLOUDY    43  38  82 N12       30.05R
SIOUX FALLS    CLOUDY    42  36  79 N9        30.02R
WINNER         CLOUDY    44  37  76 N12       30.04S
YANKTON        CLOUDY    43  37  81 NW9       30.02R
$$

MNZ071-072-080-081-089-090-097-098-282200-
SOUTHWEST MINNESOTA

CITY           SKY/WX    TMP DP  RH WIND       PRES   REMARKS
FAIRMONT       CLOUDY    39  30  70 NE13      29.98R
JACKSON        DRIZZLE   41  36  81 NE13        N/A
LUVERNE        CLOUDY    41  34  75 N9        30.01R
MARSHALL       CLOUDY    37  35  92 N10       30.04R
MONTEVIDEO     CLOUDY    37  37 100 NE9       30.06F
PIPESTONE      CLOUDY    37  36  93 NE10      30.00R
REDWOOD FALLS  CLOUDY    41  37  86 NE7       30.03R
TRACY          CLOUDY    39  37  91 NE10      30.02R
WINDOM         LGT RAIN  39  37  93 N12       30.00R
WORTHINGTON    CLOUDY    39  36  89 NE12      30.00R
$$

IAZ001>003-012>014-020>022-031-032-NEZ013-014-SDZ071-282200-
NORTHWEST IOWA

CITY           SKY/WX    TMP DP  RH WIND       PRES   REMARKS
DENISON        CLOUDY    46  43  87 NW13      29.96R
ESTHERVILLE    LGT RAIN  41  38  89 N12       29.98R
SIOUX CITY     CLOUDY    46  39  76 N14       30.01R
SPENCER        CLOUDY    43  37  79 NE12      29.98R
STORM LAKE     CLOUDY    45  41  87 N13       29.97S
$$

ABBREVIATIONS USED IN REMARKS
   TC - TEMPERATURE IN CELSIUS
  WCI - WIND CHILL INDEX
   HX - HEAT INDEX
  VSB - VISIBILITY





USA.gov is the U.S. government's official web portal to all federal, state and local government web resources and services.